• In Hungary
  • List of Countries
  • For 7 days
  • Water Temperature
  • Satellite Maps
  • Weather Map
  • News
  • Weather Widgets
  • user-avatar
    Login

    Hourly Weather Mostovka

    Today, 19 June, Tuesday

    Time Temperature Precipitation Wind Pressure Humidity
    00:00 +12°C° 0 mm 1 mps 691 mmHg 73%
    01:00 +11°C° 0 mm 1 mps 691 mmHg 75%
    02:00 +11°C° 0 mm 1 mps 691 mmHg 77%
    03:00 +10°C° 0 mm 1 mps 691 mmHg 79%
    04:00 +10°C° 0 mm 1 mps 691 mmHg 81%
    05:00 +13°C° 0 mm 1 mps 691 mmHg 70%
    06:00 +18°C° 0 mm 1 mps 692 mmHg 59%
    07:00 +21°C° 0 mm 1 mps 692 mmHg 49%
    08:00 +23°C° 0 mm 1 mps 692 mmHg 44%
    09:00 +24°C° 0 mm 1 mps 692 mmHg 38%
    10:00 +26°C° 0 mm 2 mps 692 mmHg 33%
    11:00 +27°C° 0 mm 2 mps 692 mmHg 31%
    12:00 +28°C° 0 mm 2 mps 691 mmHg 28%
    13:00 +29°C° 0 mm 2 mps 691 mmHg 25%
    14:00 +29°C° 0 mm 2 mps 691 mmHg 25%
    15:00 +29°C° 0 mm 2 mps 690 mmHg 25%
    16:00 +29°C° 0 mm 2 mps 690 mmHg 25%
    17:00 +27°C° 0 mm 1 mps 690 mmHg 32%
    18:00 +25°C° 0 mm 1 mps 689 mmHg 40%
    19:00 +23°C° 0 mm 1 mps 689 mmHg 47%
    20:00 +21°C° 0 mm 1 mps 689 mmHg 51%
    21:00 +19°C° 0 mm 1 mps 689 mmHg 55%
    22:00 +16°C° 0 mm 1 mps 689 mmHg 59%
    23:00 +15°C° 0 mm 1 mps 688 mmHg 61%

    Tomorrow, 20 June, Wednesday

    Time Temperature Precipitation Wind Pressure Humidity
    00:00 +15°C° 0 mm 1 mps 688 mmHg 63%
    01:00 +14°C° 0 mm 1 mps 688 mmHg 65%
    02:00 +14°C° 0 mm 1 mps 688 mmHg 66%
    03:00 +13°C° 0 mm 1 mps 688 mmHg 66%
    04:00 +13°C° 0 mm 1 mps 688 mmHg 67%
    05:00 +16°C° 0 mm 1 mps 688 mmHg 59%
    06:00 +19°C° 0 mm 1 mps 688 mmHg 52%
    07:00 +21°C° 0 mm 2 mps 688 mmHg 45%
    08:00 +25°C° 0 mm 2 mps 688 mmHg 37%
    09:00 +27°C° 0 mm 2 mps 688 mmHg 29%
    10:00 +30°C° 0 mm 2 mps 688 mmHg 21%
    11:00 +31°C° 0 mm 2 mps 688 mmHg 20%
    12:00 +32°C° 0 mm 2 mps 688 mmHg 19%
    13:00 +34°C° 0 mm 2 mps 687 mmHg 18%
    14:00 +32°C° 0 mm 2 mps 687 mmHg 22%
    15:00 +31°C° 0 mm 2 mps 686 mmHg 27%
    16:00 +30°C° 0 mm 2 mps 686 mmHg 32%
    17:00 +28°C° 0 mm 2 mps 686 mmHg 41%
    18:00 +26°C° 0 mm 1 mps 685 mmHg 49%
    19:00 +24°C° 0 mm 1 mps 685 mmHg 58%
    20:00 +23°C° 0 mm 1 mps 685 mmHg 61%
    21:00 +22°C° 0 mm 1 mps 685 mmHg 64%
    22:00 +21°C° 0 mm 1 mps 685 mmHg 67%
    23:00 +20°C° 0 mm 1 mps 685 mmHg 70%

    Day after tomorrow, 21 June, Thursday

    Time Temperature Precipitation Wind Pressure Humidity
    00:00 +20°C° 0 mm 1 mps 685 mmHg 73%
    01:00 +19°C° 0 mm 1 mps 684 mmHg 76%
    02:00 +19°C° 0 mm 1 mps 684 mmHg 77%
    03:00 +18°C° 0 mm 1 mps 684 mmHg 79%
    04:00 +18°C° 0 mm 1 mps 684 mmHg 81%
    05:00 +19°C° 0 mm 1 mps 684 mmHg 77%
    06:00 +20°C° 0 mm 1 mps 685 mmHg 73%
    07:00 +22°C° 0 mm 1 mps 685 mmHg 70%
    08:00 +22°C° 0.1 mm 1 mps 685 mmHg 67%
    09:00 +23°C° 0.1 mm 1 mps 685 mmHg 65%
    10:00 +24°C° 0.1 mm 1 mps 685 mmHg 62%
    11:00 +23°C° 0.4 mm 2 mps 685 mmHg 66%
    12:00 +23°C° 0.4 mm 2 mps 685 mmHg 70%
    13:00 +21°C° 0.4 mm 3 mps 685 mmHg 74%
    14:00 +20°C° 0.9 mm 2 mps 685 mmHg 80%
    15:00 +19°C° 0.9 mm 2 mps 685 mmHg 86%
    16:00 +19°C° 0.9 mm 1 mps 685 mmHg 92%
    17:00 +19°C° 0.2 mm 1 mps 685 mmHg 92%
    18:00 +19°C° 0.2 mm 1 mps 685 mmHg 91%
    19:00 +19°C° 0.2 mm 1 mps 686 mmHg 91%
    20:00 +18°C° 0 mm 1 mps 686 mmHg 93%
    21:00 +15°C° 0 mm 0 mps 686 mmHg 95%
    22:00 +14°C° 0 mm 0 mps 686 mmHg 96%
    23:00 +13°C° 0 mm 0 mps 686 mmHg 96%

    22 June, Friday

    Time Temperature Precipitation Wind Pressure Humidity
    00:00 +13°C° 0 mm 0 mps 686 mmHg 96%
    01:00 +14°C° 0 mm 1 mps 686 mmHg 97%
    02:00 +14°C° 0 mm 1 mps 686 mmHg 97%
    03:00 +13°C° 0 mm 1 mps 686 mmHg 97%
    04:00 +13°C° 0 mm 1 mps 686 mmHg 97%
    05:00 +15°C° 0 mm 1 mps 687 mmHg 92%
    06:00 +18°C° 0 mm 1 mps 687 mmHg 87%
    07:00 +20°C° 0 mm 1 mps 688 mmHg 82%
    08:00 +22°C° 0 mm 1 mps 688 mmHg 70%
    09:00 +24°C° 0 mm 2 mps 688 mmHg 58%
    10:00 +26°C° 0 mm 3 mps 688 mmHg 47%
    11:00 +27°C° 0 mm 3 mps 688 mmHg 43%
    12:00 +28°C° 0 mm 3 mps 687 mmHg 40%
    13:00 +29°C° 0 mm 3 mps 687 mmHg 37%
    14:00 +28°C° 0 mm 3 mps 687 mmHg 38%
    15:00 +28°C° 0 mm 3 mps 687 mmHg 39%
    16:00 +28°C° 0 mm 3 mps 687 mmHg 40%
    17:00 +26°C° 0.1 mm 3 mps 687 mmHg 48%
    18:00 +24°C° 0.1 mm 2 mps 687 mmHg 57%
    19:00 +21°C° 0.1 mm 2 mps 687 mmHg 65%
    20:00 +21°C° 0.4 mm 1 mps 687 mmHg 73%
    21:00 +19°C° 0.4 mm 1 mps 688 mmHg 81%
    22:00 +18°C° 0.4 mm 1 mps 688 mmHg 89%
    23:00 +16°C° 0.1 mm 1 mps 688 mmHg 90%

    23 June, Saturday

    Time Temperature Precipitation Wind Pressure Humidity
    00:00 +14°C° 0.1 mm 0 mps 687 mmHg 92%
    01:00 +14°C° 0.1 mm 0 mps 687 mmHg 93%
    02:00 +13°C° 0 mm 0 mps 687 mmHg 94%
    03:00 +13°C° 0 mm 0 mps 687 mmHg 94%
    04:00 +12°C° 0 mm 0 mps 687 mmHg 95%
    05:00 +15°C° 0 mm 0 mps 687 mmHg 87%
    06:00 +17°C° 0 mm 0 mps 688 mmHg 79%
    07:00 +21°C° 0 mm 1 mps 688 mmHg 72%
    08:00 +23°C° 0 mm 1 mps 688 mmHg 61%
    09:00 +25°C° 0 mm 2 mps 688 mmHg 50%
    10:00 +27°C° 0 mm 2 mps 688 mmHg 39%
    11:00 +27°C° 0 mm 3 mps 688 mmHg 37%
    12:00 +28°C° 0 mm 3 mps 687 mmHg 35%
    13:00 +28°C° 0 mm 4 mps 687 mmHg 32%
    14:00 +28°C° 0 mm 4 mps 687 mmHg 32%
    15:00 +28°C° 0 mm 4 mps 687 mmHg 31%
    16:00 +28°C° 0 mm 3 mps 687 mmHg 31%
    17:00 +27°C° 0 mm 3 mps 687 mmHg 37%
    18:00 +25°C° 0 mm 2 mps 687 mmHg 43%
    19:00 +24°C° 0 mm 2 mps 687 mmHg 49%
    20:00 +21°C° 0 mm 1 mps 687 mmHg 53%
    21:00 +19°C° 0 mm 1 mps 687 mmHg 58%
    22:00 +16°C° 0 mm 1 mps 687 mmHg 63%
    23:00 +15°C° 0 mm 1 mps 687 mmHg 65%

    24 June, Sunday

    Time Temperature Precipitation Wind Pressure Humidity
    00:00 +14°C° 0 mm 1 mps 687 mmHg 68%
    01:00 +13°C° 0 mm 1 mps 687 mmHg 71%
    02:00 +12°C° 0 mm 0 mps 687 mmHg 73%
    03:00 +11°C° 0 mm 0 mps 687 mmHg 75%
    04:00 +11°C° 0 mm 0 mps 687 mmHg 76%
    05:00 +14°C° 0 mm 0 mps 687 mmHg 66%
    06:00 +19°C° 0 mm 1 mps 688 mmHg 56%
    07:00 +22°C° 0 mm 1 mps 689 mmHg 47%
    08:00 +24°C° 0 mm 1 mps 689 mmHg 42%
    09:00 +26°C° 0 mm 2 mps 689 mmHg 37%
    10:00 +27°C° 0 mm 2 mps 689 mmHg 33%
    11:00 +28°C° 0 mm 2 mps 688 mmHg 31%
    12:00 +29°C° 0 mm 3 mps 688 mmHg 29%
    13:00 +30°C° 0 mm 3 mps 688 mmHg 27%
    14:00 +30°C° 0 mm 3 mps 688 mmHg 27%
    15:00 +30°C° 0 mm 3 mps 688 mmHg 27%
    16:00 +30°C° 0 mm 3 mps 688 mmHg 28%
    17:00 +28°C° 0 mm 2 mps 687 mmHg 34%
    18:00 +26°C° 0 mm 2 mps 687 mmHg 41%
    19:00 +24°C° 0 mm 1 mps 687 mmHg 48%
    20:00 +22°C° 0 mm 1 mps 687 mmHg 53%
    21:00 +20°C° 0 mm 1 mps 687 mmHg 59%
    22:00 +15°C° 0 mm 0 mps 687 mmHg 64%
    23:00 +14°C° 0 mm 0 mps 687 mmHg 66%
    Show more